User: anonymous   Login
Location: Unspecified
(0.0000°N, 0.0000°E)
Time: 10:54:00
(UTC+00:00)
Language:

FO-29 - Orbit

View from above orbital plane
View from above orbital plane
View from above satellite
View from above satellite

Ground track
Ground track

The orbit data is extracted from the following two-line orbital elements,

1 24278U 96046B   21170.74219732 -.00000016  00000-0  17486-4 0  9992
2 24278  98.5669 238.4163 0351073 143.6059 218.9512 13.53104915226552
Epoch (UTC): 19 June 2021 17:48:45
Eccentricity: 0.0351073
inclination: 98.5669°
perigee height: 799 km
apogee height: 1322 km
right ascension of ascending node: 238.4163°
argument of perigee: 143.6059°
revolutions per day: 13.53104915
mean anomaly at epoch: 218.9512°
orbit number at epoch: 22655

The dashed part of the orbit path shows where the satellite is in the earth's shadow,  

DLR